| time (UTC) | temp C | wind direction | speed KPH | gust KPH | rain 1hr cm | rain 24hr cm | rain mn cm | humidity % | barometer mb |
| 20260507161514 | 13 | 19 | 0.0 | 3.2 | 0.00 | 0.00 | 0.00 | 67 | 1016.3 |
| 20260507160021 | 14 | 315 | 0.0 | 4.8 | 0.00 | 0.00 | 0.00 | 65 | 1016.3 |
| 20260507154521 | 14 | 338 | 0.0 | 4.8 | 0.00 | 0.00 | 0.00 | 66 | 1016.3 |
| 20260507153009 | 13 | 32 | 0.0 | 4.8 | 0.00 | 0.00 | 0.00 | 64 | 1016.4 |
| 20260507151512 | 14 | 90 | 0.0 | 6.4 | 0.00 | 0.00 | 0.00 | 63 | 1016.4 |
| 20260507150015 | 14 | 355 | 0.0 | 4.8 | 0.00 | 0.00 | 0.00 | 65 | 1016.3 |
| 20260507144522 | 15 | 355 | 0.0 | 4.8 | 0.00 | 0.00 | 0.00 | 62 | 1016.3 |
| 20260507143027 | 15 | 5 | 0.0 | 4.8 | 0.00 | 0.00 | 0.00 | 62 | 1016.2 |
| 20260507141509 | 15 | 26 | 1.6 | 4.8 | 0.00 | 0.00 | 0.00 | 64 | 1016.4 |
| 20260507140013 | 15 | 349 | 0.0 | 3.2 | 0.00 | 0.00 | 0.00 | 63 | 1016.5 |
| 20260507134519 | 15 | 12 | 0.0 | 3.2 | 0.00 | 0.00 | 0.00 | 59 | 1016.5 |
| 20260507133023 | 15 | 54 | 0.0 | 4.8 | 0.00 | 0.00 | 0.00 | 62 | 1016.6 |
| 20260507131534 | 15 | 22 | 1.6 | 6.4 | 0.00 | 0.00 | 0.00 | 62 | 1016.6 |
| 20260507130027 | 14 | 10 | 0.0 | 4.8 | 0.00 | 0.00 | 0.00 | 64 | 1016.6 |
| 20260507124515 | 14 | 38 | 0.0 | 4.8 | 0.00 | 0.00 | 0.00 | 65 | 1016.7 |
| 20260507123020 | 14 | 352 | 0.0 | 4.8 | 0.00 | 0.00 | 0.00 | 67 | 1016.7 |
| 20260507121525 | 13 | 27 | 0.0 | 4.8 | 0.00 | 0.00 | 0.00 | 66 | 1016.6 |
| 20260507120038 | 13 | 78 | 0.0 | 3.2 | 0.00 | 0.00 | 0.00 | 66 | 1016.6 |
| 20260507114526 | 13 | 340 | 0.0 | 3.2 | 0.00 | 0.00 | 0.00 | 67 | 1016.6 |
| 20260507113018 | 13 | 157 | 0.0 | 3.2 | 0.00 | 0.00 | 0.00 | 69 | 1016.5 |
| 20260507111524 | 13 | 330 | 1.6 | 4.8 | 0.00 | 0.00 | 0.00 | 71 | 1016.7 |
| 20260507110026 | 13 | 24 | 0.0 | 3.2 | 0.00 | 0.00 | 0.00 | 69 | 1016.7 |
| 20260507104527 | 13 | 28 | 1.6 | 6.4 | 0.00 | 0.00 | 0.00 | 73 | 1016.6 |
| 20260507103026 | 12 | 340 | 0.0 | 3.2 | 0.00 | 0.00 | 0.00 | 74 | 1016.8 |
| 20260507101503 | 13 | 256 | 1.6 | 4.8 | 0.00 | 0.00 | 0.00 | 72 | 1016.8 |
| 20260507100007 | 12 | 315 | 0.0 | 6.4 | 0.00 | 0.00 | 0.00 | 74 | 1016.7 |
| 20260507094505 | 12 | 238 | 1.6 | 8.0 | 0.00 | 0.00 | 0.00 | 75 | 1016.6 |
| 20260507093008 | 11 | 73 | 0.0 | 4.8 | 0.00 | 0.03 | 0.00 | 77 | 1016.6 |
| 20260507091516 | 11 | 260 | 1.6 | 6.4 | 0.00 | 0.05 | 0.00 | 77 | 1016.5 |
| 20260507090008 | 11 | 217 | 0.0 | 3.2 | 0.00 | 0.08 | 0.00 | 79 | 1016.4 |
| 20260507084510 | 11 | 355 | 1.6 | 6.4 | 0.00 | 0.08 | 0.00 | 77 | 1016.4 |
| 20260507083006 | 11 | 355 | 0.0 | 1.6 | 0.00 | 0.13 | 0.00 | 78 | 1016.4 |
| 20260507081513 | 10 | 344 | 0.0 | 3.2 | 0.00 | 0.13 | 0.00 | 78 | 1016.2 |
| 20260507080015 | 10 | 312 | 1.6 | 4.8 | 0.00 | 0.15 | 0.00 | 80 | 1016.2 |
| 20260507074507 | 10 | 275 | 0.0 | 4.8 | 0.00 | 0.15 | 0.00 | 80 | 1016.1 |
| 20260507073004 | 10 | 259 | 1.6 | 4.8 | 0.00 | 0.18 | 0.00 | 83 | 1016.0 |
| 20260507071507 | 9 | 301 | 0.0 | 3.2 | 0.00 | 0.20 | 0.00 | 87 | 1016.0 |
| 20260507070018 | 9 | 268 | 1.6 | 4.8 | 0.00 | 0.23 | 0.00 | 89 | 1015.9 |
| 20260507064517 | 8 | 323 | 0.0 | 1.6 | 0.00 | 0.25 | 0.00 | 91 | 1015.8 |
| 20260507063026 | 8 | 274 | 0.0 | 3.2 | 0.00 | 0.28 | 0.00 | 92 | 1015.7 |
| 20260507061506 | 8 | 320 | 0.0 | 4.8 | 0.00 | 0.30 | 0.00 | 94 | 1015.5 |
| 20260507060009 | 8 | 270 | 0.0 | 3.2 | 0.00 | 0.36 | 0.00 | 95 | 1015.5 |
| 20260507054514 | 7 | 306 | 0.0 | 3.2 | 0.00 | 0.38 | 0.00 | 95 | 1015.3 |
| 20260507053019 | 7 | 316 | 0.0 | 3.2 | 0.00 | 0.41 | 0.00 | 95 | 1015.2 |
| 20260507051524 | 7 | 338 | 0.0 | 1.6 | 0.00 | 0.46 | 0.00 | 95 | 1015.1 |
| 20260507050022 | 7 | 340 | 0.0 | 3.2 | 0.00 | 0.51 | 0.00 | 95 | 1014.9 |
| 20260507044522 | 7 | 323 | 0.0 | 1.6 | 0.00 | 0.56 | 0.00 | 95 | 1014.7 |
| 20260507043012 | 7 | 311 | 0.0 | 3.2 | 0.00 | 0.61 | 0.00 | 95 | 1014.6 |
| 20260507041518 | 7 | 355 | 0.0 | 1.6 | 0.00 | 0.64 | 0.00 | 95 | 1014.5 |
| 20260507040021 | 7 | 67 | 0.0 | 0.0 | 0.00 | 0.66 | 0.00 | 95 | 1014.4 |
| 20260507034526 | 7 | 67 | 0.0 | 0.0 | 0.00 | 0.66 | 0.00 | 95 | 1014.5 |
| 20260507033017 | 7 | 67 | 0.0 | 0.0 | 0.00 | 0.69 | 0.00 | 94 | 1014.3 |
| 20260507031515 | 7 | 67 | 0.0 | 0.0 | 0.00 | 0.71 | 0.00 | 94 | 1014.3 |
| 20260507030020 | 7 | 67 | 0.0 | 0.0 | 0.00 | 0.74 | 0.00 | 94 | 1014.3 |
| 20260507024525 | 7 | 67 | 0.0 | 0.0 | 0.00 | 0.74 | 0.00 | 94 | 1014.2 |
| 20260507023029 | 7 | 67 | 0.0 | 0.0 | 0.00 | 0.74 | 0.00 | 94 | 1014.2 |
| 20260507021512 | 7 | 67 | 0.0 | 3.2 | 0.00 | 0.76 | 0.00 | 93 | 1014.1 |
| 20260507020018 | 7 | 292 | 0.0 | 3.2 | 0.00 | 0.76 | 0.00 | 94 | 1013.9 |
| 20260507014531 | 7 | 312 | 0.0 | 0.0 | 0.00 | 0.79 | 0.00 | 95 | 1013.8 |
| 20260507013026 | 7 | 312 | 0.0 | 0.0 | 0.00 | 0.84 | 0.00 | 95 | 1013.8 |
| 20260507011510 | 7 | 313 | 0.0 | 0.0 | 0.00 | 0.89 | 0.00 | 95 | 1013.8 |
| 20260507010010 | 7 | 313 | 0.0 | 0.0 | 0.00 | 0.91 | 0.00 | 94 | 1013.8 |
| 20260507004521 | 7 | 312 | 0.0 | 0.0 | 0.00 | 0.94 | 0.00 | 94 | 1013.7 |
| 20260507003003 | 7 | 313 | 0.0 | 0.0 | 0.00 | 0.97 | 0.00 | 94 | 1013.7 |
| 20260507001505 | 7 | 313 | 0.0 | 0.0 | 0.00 | 1.02 | 0.00 | 94 | 1013.5 |
| 20260507000010 | 7 | 313 | 0.0 | 0.0 | 0.00 | 1.02 | 0.00 | 94 | 1013.5 |
| 20260506234516 | 7 | 313 | 0.0 | 0.0 | 0.00 | 1.04 | 0.00 | 94 | 1013.4 |
| 20260506233020 | 7 | 312 | 0.0 | 0.0 | 0.00 | 1.07 | 0.00 | 93 | 1013.4 |
| 20260506231504 | 6 | 312 | 0.0 | 0.0 | 0.00 | 1.12 | 0.00 | 93 | 1013.4 |
| 20260506230003 | 6 | 313 | 0.0 | 0.0 | 0.00 | 1.12 | 0.00 | 93 | 1013.4 |
| 20260506224510 | 6 | 312 | 0.0 | 1.6 | 0.00 | 1.14 | 0.00 | 92 | 1013.3 |
| 20260506223016 | 6 | 313 | 0.0 | 0.0 | 0.00 | 1.17 | 0.00 | 91 | 1012.9 |
| 20260506221521 | 7 | 313 | 0.0 | 0.0 | 0.00 | 1.22 | 0.00 | 89 | 1012.7 |
| 20260506220026 | 7 | 313 | 0.0 | 0.0 | 0.00 | 1.22 | 0.00 | 89 | 1012.7 |
| 20260506214507 | 7 | 317 | 0.0 | 3.2 | 0.00 | 1.27 | 1.22 | 88 | 1012.7 |
| 20260506213011 | 7 | 288 | 0.0 | 3.2 | 0.00 | 1.30 | 1.22 | 87 | 1012.7 |
| 20260506211518 | 8 | 297 | 0.0 | 1.6 | 0.00 | 1.37 | 1.22 | 86 | 1012.5 |
| 20260506210022 | 8 | 295 | 0.0 | 3.2 | 0.00 | 1.40 | 1.22 | 85 | 1012.5 |
| 20260506204526 | 8 | 347 | 0.0 | 4.8 | 0.00 | 1.45 | 1.22 | 84 | 1012.3 |
| 20260506203008 | 8 | 338 | 0.0 | 4.8 | 0.00 | 1.50 | 1.22 | 84 | 1012.2 |
| 20260506201516 | 9 | 345 | 0.0 | 4.8 | 0.00 | 1.50 | 1.22 | 83 | 1012.1 |
| 20260506200019 | 9 | 298 | 0.0 | 4.8 | 0.00 | 1.52 | 1.22 | 83 | 1011.9 |
| 20260506194524 | 10 | 325 | 0.0 | 4.8 | 0.00 | 1.55 | 1.22 | 84 | 1011.8 |
| 20260506193025 | 10 | 14 | 0.0 | 3.2 | 0.00 | 1.57 | 1.22 | 88 | 1011.8 |
| 20260506191525 | 10 | 314 | 0.0 | 1.6 | 0.00 | 1.57 | 1.22 | 88 | 1011.5 |
| 20260506190014 | 10 | 308 | 0.0 | 4.8 | 0.00 | 1.60 | 1.22 | 87 | 1011.4 |
| 20260506184521 | 11 | 316 | 0.0 | 1.6 | 0.00 | 1.63 | 1.22 | 87 | 1011.2 |
| 20260506183022 | 11 | 316 | 0.0 | 1.6 | 0.00 | 1.65 | 1.22 | 86 | 1011.2 |
| 20260506181528 | 11 | 316 | 0.0 | 1.6 | 0.00 | 1.68 | 1.22 | 86 | 1010.9 |
| 20260506180038 | 11 | 323 | 0.0 | 4.8 | 0.00 | 1.68 | 1.22 | 85 | 1010.8 |
| 20260506174513 | 11 | 267 | 0.0 | 3.2 | 0.00 | 1.70 | 1.22 | 84 | 1010.5 |
| 20260506173020 | 11 | 286 | 0.0 | 4.8 | 0.00 | 1.70 | 1.22 | 83 | 1010.4 |
| 20260506171527 | 11 | 350 | 0.0 | 8.0 | 0.00 | 1.70 | 1.22 | 81 | 1010.2 |
| 20260506170027 | 11 | 286 | 1.6 | 6.4 | 0.00 | 1.70 | 1.22 | 82 | 1010.2 |
| 20260506164529 | 11 | 252 | 0.0 | 6.4 | 0.00 | 1.70 | 1.22 | 85 | 1010.1 |
| 20260506163052 | 11 | 317 | 0.0 | 3.2 | 0.00 | 1.70 | 1.22 | 86 | 1010.1 |